Location: Devore Heights
(34.2372°N, 117.4156°W)
Time: 23:32:25
(UTC+00:00)

Transit 4A - Pass Details

Date: 14 September 2024
Orbit: 864 x 978 km, 66.8° (Epoch: 13 October)

Event Time Altitude Azimuth Distance (km) Brightness Sun altitude
Rises 20:32:29 0° 328° (NNW) 3,619 10.8 56.8°
Reaches altitude 10° 20:35:03 10° 325° (NW) 2,685 10.3 56.6°
Maximum altitude 20:41:10 56° 249° (WSW) 1,136 9.9 56.1°
Drops below altitude 10° 20:47:22 10° 172° (S) 2,714 10.9 55.5°
Sets 20:49:58 0° 168° (SSE) 3,660 11.4 55.3°
